{"data":{"norad_id":68648,"epoch":"2026-09-19T22:19:54.118272Z","epoch_age_seconds":112425,"freshness":"FRESH","line1":"1 68648U 26075N   26262.93048748  .00000038  00000+0  39846-4 0  9997","line2":"2 68648  88.9865 311.3252 0002226  98.0973 262.0431 13.51023811 22606","mean_motion":13.51023811,"eccentricity":0.0002226,"inclination_deg":88.9865,"raan_deg":311.3252,"arg_perigee_deg":98.0973,"mean_anomaly_deg":262.0431,"bstar":3.9846e-5,"rev_number":2260,"period_min":106.58583425959,"perigee_km":1066.8364688845,"apogee_km":1070.1517090453,"semimajor_km":7446.6310889649,"source":"CELESTRAK","updated_at":"2026-09-20T09:00:24.371289Z"}}